CW5689 Weather Reports


Display with metric or nautical units.
time (UTC)temp
F
wind
direction
speed
MPH
gust
MPH
rain 1hr
in
rain 24hr
in
rain mn
in
humidity
%
barometer
mb
20260906231540 77 80 3.0 6.0 0.00 0.00 0.00 72 1017.5
20260906231024 77 80 2.0 4.0 0.00 0.00 0.00 73 1017.4
20260906230525 77 81 2.0 4.0 0.00 0.00 0.00 73 1017.4
20260906230040 78 82 2.0 4.0 0.00 0.00 0.00 73 1017.3
20260906225524 78 84 2.0 4.0 0.00 0.00 0.00 73 1017.1
20260906225023 78 107 2.0 4.0 0.00 0.00 0.00 74 1017.0
20260906224548 78 111 2.0 4.0 0.00 0.00 0.00 73 1017.1
20260906224023 78 118 1.0 3.0 0.00 0.00 0.00 72 1017.2
20260906223520 78 122 2.0 3.0 0.00 0.00 0.00 73 1017.3
20260906223044 79 137 2.0 3.0 0.00 0.00 0.00 73 1017.6
20260906222521 79 169 0.0 2.0 0.00 0.00 0.00 73 1017.7
20260906222023 79 0 0.0 2.0 0.00 0.00 0.00 73 1017.6
20260906221549 79 0 0.0 3.0 0.00 0.00 0.00 73 1017.7
20260906221021 79 0 0.0 3.0 0.00 0.00 0.00 72 1017.8
20260906220518 79 0 0.0 0.0 0.00 0.00 0.00 72 1017.8
20260906220040 79 0 0.0 0.0 0.00 0.00 0.00 72 1017.8
20260906215519 79 0 0.0 0.0 0.00 0.00 0.00 73 1017.8
20260906215018 79 0 0.0 0.0 0.00 0.00 0.00 73 1017.7
20260906214537 79 0 0.0 0.0 0.00 0.00 0.00 73 1017.7
20260906214023 79 0 0.0 0.0 0.00 0.00 0.00 71 1017.6
20260906213520 80 0 0.0 0.0 0.00 0.00 0.00 72 1017.7
20260906213042 80 0 0.0 0.0 0.00 0.00 0.00 73 1017.6
20260906212518 80 0 0.0 0.0 0.00 0.00 0.00 71 1017.7
20260906212020 80 0 0.0 0.0 0.00 0.00 0.00 72 1017.8
20260906211542 80 0 0.0 0.0 0.00 0.00 0.00 72 1017.9
20260906211020 80 0 0.0 2.0 0.00 0.00 0.00 71 1018.1
20260906210520 80 0 0.0 2.0 0.00 0.00 0.00 72 1018.2
20260906210041 80 0 0.0 5.0 0.00 0.00 0.00 71 1018.3
20260906205519 80 0 0.0 7.0 0.00 0.00 0.00 70 1018.4
20260906205020 80 153 0.0 7.0 0.00 0.00 0.00 71 1018.4
20260906204559 80 174 2.0 9.0 0.00 0.00 0.00 70 1018.5
20260906204018 81 176 3.0 9.0 0.00 0.00 0.00 71 1018.6
20260906203518 81 168 2.0 10.0 0.00 0.00 0.00 70 1018.4
20260906203041 81 224 4.0 13.0 0.00 0.00 0.00 69 1018.5
20260906202521 81 168 1.0 13.0 0.00 0.00 0.00 69 1018.4
20260906202019 81 195 3.0 13.0 0.00 0.00 0.00 70 1018.3
20260906201548 81 202 2.0 8.0 0.00 0.00 0.00 71 1018.0
20260906201018 81 184 2.0 10.0 0.00 0.00 0.00 71 1018.0
20260906200520 81 191 1.0 10.0 0.00 0.00 0.00 70 1018.0
20260906200041 81 192 4.0 9.0 0.00 0.00 0.00 71 1018.0
20260906195520 81 165 1.0 13.0 0.00 0.00 0.00 71 1018.0
20260906195018 81 162 1.0 13.0 0.00 0.00 0.00 69 1018.1
20260906194539 81 158 2.0 13.0 0.00 0.00 0.00 69 1018.1
20260906194019 81 138 3.0 13.0 0.00 0.00 0.00 68 1018.3
20260906193523 81 193 4.0 16.0 0.00 0.00 0.00 68 1018.2
20260906193039 81 154 4.0 16.0 0.00 0.00 0.00 69 1018.2
20260906192521 81 170 4.0 11.0 0.00 0.00 0.00 68 1018.2
20260906192019 82 201 3.0 10.0 0.00 0.00 0.00 67 1018.1
20260906191539 82 109 1.0 6.0 0.00 0.00 0.00 67 1018.3
20260906191018 82 147 2.0 11.0 0.00 0.00 0.00 67 1018.2
20260906190520 82 176 3.0 11.0 0.00 0.00 0.00 67 1018.2
20260906190044 82 213 4.0 10.0 0.00 0.00 0.00 68 1018.2
20260906185519 82 161 1.0 12.0 0.00 0.00 0.00 66 1018.2
20260906185019 82 0 2.0 12.0 0.00 0.00 0.00 68 1018.2
20260906184542 83 192 2.0 11.0 0.00 0.00 0.00 68 1018.1
20260906184016 83 184 4.0 11.0 0.00 0.00 0.00 67 1018.1
20260906183518 83 167 4.0 9.0 0.00 0.00 0.00 71 1018.1
20260906183043 82 131 2.0 6.0 0.00 0.00 0.00 68 1018.0
20260906182519 82 83 2.0 7.0 0.00 0.00 0.00 69 1018.1
20260906182021 82 0 1.0 7.0 0.00 0.00 0.00 69 1018.2
20260906181538 82 169 2.0 10.0 0.00 0.00 0.00 70 1018.2
20260906181019 81 154 2.0 10.0 0.00 0.00 0.00 72 1018.3
20260906180520 81 206 0.0 9.0 0.00 0.00 0.00 73 1018.5
20260906180055 80 0 2.0 9.0 0.00 0.00 0.00 72 1018.5
20260906175520 80 253 2.0 9.0 0.00 0.00 0.00 73 1018.5
20260906175018 80 98 2.0 4.0 0.00 0.00 0.00 74 1018.5
20260906174539 80 172 0.0 6.0 0.00 0.00 0.00 73 1018.6
20260906174018 80 0 1.0 8.0 0.00 0.00 0.00 74 1018.7
20260906173523 79 138 2.0 10.0 0.00 0.00 0.00 74 1018.7
20260906173042 79 163 1.0 10.0 0.00 0.00 0.00 75 1018.7
20260906172519 79 182 2.0 11.0 0.00 0.00 0.00 74 1018.7
20260906172020 79 95 1.0 12.0 0.00 0.00 0.00 74 1018.7
20260906171543 78 148 5.0 12.0 0.00 0.00 0.00 75 1018.8
20260906171018 78 180 2.0 12.0 0.00 0.00 0.00 76 1018.9
20260906170518 78 0 1.0 9.0 0.00 0.00 0.00 76 1018.9
20260906170051 78 210 3.0 10.0 0.00 0.00 0.00 77 1019.1
20260906165520 78 151 2.0 10.0 0.00 0.00 0.00 76 1019.2
20260906165019 77 80 2.0 5.0 0.00 0.00 0.00 77 1019.1
20260906164541 77 126 1.0 5.0 0.00 0.00 0.00 78 1019.1
20260906164018 77 0 1.0 5.0 0.00 0.00 0.00 78 1019.2
20260906163518 77 101 0.0 4.0 0.00 0.00 0.00 79 1019.2
20260906163043 77 99 0.0 6.0 0.00 0.00 0.00 77 1019.2
20260906162521 77 0 1.0 8.0 0.00 0.00 0.00 78 1019.2
20260906162020 77 107 2.0 8.0 0.00 0.00 0.00 77 1019.2
20260906161540 77 136 3.0 8.0 0.00 0.00 0.00 78 1019.2
20260906161018 77 198 2.0 5.0 0.00 0.00 0.00 79 1019.2
20260906160520 77 0 0.0 8.0 0.00 0.00 0.00 79 1019.3
20260906160042 77 0 0.0 9.0 0.00 0.00 0.00 79 1019.3
20260906155520 76 176 3.0 9.0 0.00 0.00 0.00 80 1019.4
20260906155020 76 157 3.0 9.0 0.00 0.00 0.00 81 1019.5
20260906154537 75 130 2.0 8.0 0.00 0.00 0.00 81 1019.5
20260906154024 75 205 2.0 8.0 0.00 0.00 0.00 83 1019.5
20260906153525 75 0 0.0 8.0 0.00 0.00 0.00 82 1019.4
20260906153041 75 0 1.0 8.0 0.00 0.00 0.00 83 1019.5
20260906152522 75 196 0.0 6.0 0.00 0.00 0.00 84 1019.6
20260906152018 74 147 2.0 7.0 0.00 0.00 0.00 83 1019.5
20260906151540 74 0 1.0 7.0 0.00 0.00 0.00 83 1019.6
20260906151019 74 187 2.0 9.0 0.00 0.00 0.00 84 1019.6
20260906150520 74 179 1.0 9.0 0.00 0.00 0.00 83 1019.5
20260906150042 74 186 2.0 9.0 0.00 0.00 0.00 86 1019.4
20260906145517 73 224 1.0 5.0 0.00 0.00 0.00 87 1019.5
20260906145018 73 0 0.0 6.0 0.00 0.00 0.00 86 1019.3
20260906144542 73 0 1.0 7.0 0.00 0.00 0.00 87 1019.4
20260906144021 72 164 1.0 7.0 0.00 0.00 0.00 89 1019.4
20260906143521 72 111 1.0 7.0 0.00 0.00 0.00 88 1019.5
20260906143041 72 0 0.0 7.0 0.00 0.00 0.00 89 1019.4
20260906142520 71 194 1.0 6.0 0.00 0.00 0.00 90 1019.5
20260906142020 71 125 0.0 3.0 0.00 0.00 0.00 90 1019.4
20260906141541 71 124 1.0 6.0 0.00 0.00 0.00 91 1019.4
20260906141020 71 0 0.0 6.0 0.00 0.00 0.00 90 1019.4
20260906140521 71 143 1.0 4.0 0.00 0.00 0.00 91 1019.4
20260906140040 70 0 1.0 4.0 0.00 0.00 0.00 91 1019.4
20260906135524 70 86 1.0 3.0 0.00 0.00 0.00 91 1019.4
20260906135024 70 86 2.0 4.0 0.00 0.00 0.00 91 1019.4
20260906134537 70 87 2.0 4.0 0.00 0.00 0.00 91 1019.3
20260906134021 70 90 2.0 4.0 0.00 0.00 0.00 92 1019.2
20260906133518 69 119 2.0 3.0 0.00 0.00 0.00 92 1019.2
20260906133043 69 121 1.0 3.0 0.00 0.00 0.00 92 1019.2
20260906132522 69 122 1.0 3.0 0.00 0.00 0.00 92 1019.2
20260906132019 69 133 1.0 3.0 0.00 0.00 0.00 92 1019.2
20260906131543 69 130 0.0 3.0 0.00 0.00 0.00 92 1019.2
20260906131020 69 130 0.0 5.0 0.00 0.00 0.00 92 1019.2
20260906130520 69 130 0.0 5.0 0.00 0.00 0.00 92 1019.2
20260906130038 69 164 1.0 4.0 0.00 0.00 0.00 92 1019.0
20260906125518 68 161 0.0 5.0 0.00 0.00 0.00 93 1019.0
20260906125020 68 195 1.0 5.0 0.00 0.00 0.00 93 1018.9
20260906124539 68 0 1.0 5.0 0.00 0.00 0.00 93 1018.9
20260906124019 68 193 0.0 3.0 0.00 0.00 0.00 93 1019.1
20260906123518 68 163 0.0 3.0 0.00 0.00 0.00 93 1019.2
20260906123046 68 183 0.0 3.0 0.00 0.00 0.00 93 1019.1
20260906122523 67 202 0.0 7.0 0.00 0.00 0.00 93 1018.9
20260906122023 67 0 0.0 7.0 0.00 0.00 0.00 93 1018.9
20260906121548 67 0 0.0 0.0 0.00 0.00 0.00 92 1018.8
20260906121024 67 0 0.0 0.0 0.00 0.00 0.00 92 1018.8
20260906121011 67 118 0.0 0.0 0.00 0.00 0.00 92 1018.2
20260906120523 67 0 0.0 0.0 0.00 0.00 0.00 92 1018.7
20260906120511 67 121 0.0 0.0 0.00 0.00 0.00 92 1018.1
20260906120055 67 0 0.0 0.0 0.00 0.00 0.00 92 1018.7
20260906120011 67 121 0.0 0.0 0.00 0.00 0.00 91 1018.1
20260906115523 67 0 0.0 0.0 0.00 0.00 0.00 92 1018.7
20260906115018 67 0 0.0 0.0 0.00 0.00 0.00 92 1018.6
20260906114543 67 0 0.0 0.0 0.00 0.00 0.00 92 1018.6
20260906114511 67 121 0.0 0.0 0.00 0.00 0.00 92 1018.0
20260906114020 67 0 0.0 0.0 0.00 0.00 0.00 92 1018.6
20260906114012 67 121 0.0 0.0 0.00 0.00 0.00 92 1017.9
20260906113523 67 0 0.0 0.0 0.00 0.00 0.00 92 1018.5
20260906113511 67 180 0.0 0.0 0.00 0.00 0.00 91 1017.9
20260906113047 67 0 0.0 0.0 0.00 0.00 0.00 92 1018.6
20260906113011 67 218 0.0 0.0 0.00 0.00 0.00 91 1018.0
20260906112527 67 0 0.0 0.0 0.00 0.00 0.00 92 1018.5
20260906112511 67 218 0.0 0.0 0.00 0.00 0.00 91 1018.0
20260906112019 67 0 0.0 0.0 0.00 0.00 0.00 92 1018.5
20260906112011 67 218 0.0 0.0 0.00 0.00 0.00 91 1017.9
20260906111559 67 0 0.0 0.0 0.00 0.00 0.00 92 1018.4
20260906111511 67 219 0.0 0.0 0.00 0.00 0.00 91 1017.8
20260906111023 67 0 0.0 0.0 0.00 0.00 0.00 92 1018.3
20260906111011 67 219 0.0 0.0 0.00 0.00 0.00 91 1017.7
20260906110524 67 0 0.0 0.0 0.00 0.00 0.00 92 1018.3
20260906110511 67 219 0.0 0.0 0.00 0.00 0.00 91 1017.7
20260906110044 67 0 0.0 0.0 0.00 0.00 0.00 91 1018.3
20260906110011 68 219 0.0 0.0 0.00 0.00 0.00 91 1017.7
20260906105526 67 0 0.0 0.0 0.00 0.00 0.00 92 1018.0
20260906105511 68 218 0.0 0.0 0.00 0.00 0.00 91 1017.5
20260906105023 67 0 0.0 0.0 0.00 0.00 0.00 92 1018.1
20260906105011 68 218 0.0 0.0 0.00 0.00 0.00 91 1017.5
20260906104541 67 0 0.0 0.0 0.00 0.00 0.00 92 1018.0
20260906104511 68 218 0.0 0.0 0.00 0.00 0.00 91 1017.4
20260906104021 67 0 0.0 0.0 0.00 0.00 0.00 92 1018.1
20260906104011 68 218 0.0 0.0 0.00 0.00 0.00 91 1017.4
20260906103521 67 0 0.0 0.0 0.00 0.00 0.00 92 1018.0
20260906103511 68 218 0.0 0.0 0.00 0.00 0.00 91 1017.4
20260906103038 67 0 0.0 0.0 0.00 0.00 0.00 92 1018.0
20260906103011 68 218 0.0 0.0 0.00 0.00 0.00 91 1017.4
20260906102519 67 0 0.0 0.0 0.00 0.00 0.00 92 1018.0
20260906102019 67 0 0.0 0.0 0.00 0.00 0.00 92 1018.0
20260906102011 68 218 0.0 0.0 0.00 0.00 0.00 91 1017.4
20260906101538 67 0 0.0 0.0 0.00 0.00 0.00 92 1018.0
20260906101511 68 218 0.0 0.0 0.00 0.00 0.00 91 1017.3
20260906101023 67 0 0.0 0.0 0.00 0.00 0.00 92 1017.9
20260906100526 67 0 0.0 0.0 0.00 0.00 0.00 92 1017.8
20260906100510 68 218 0.0 0.0 0.00 0.00 0.00 91 1017.2
20260906100042 67 0 0.0 2.0 0.00 0.00 0.00 92 1017.7
20260906100011 68 218 0.0 0.0 0.00 0.00 0.00 91 1017.0
20260906095518 67 0 0.0 2.0 0.00 0.00 0.00 92 1017.5
20260906095511 68 218 0.0 0.0 0.00 0.00 0.00 91 1016.9
20260906095021 67 0 1.0 3.0 0.00 0.00 0.00 92 1017.5
20260906095011 68 218 1.0 0.0 0.00 0.00 0.00 91 1016.9
20260906094542 67 218 1.0 4.0 0.00 0.00 0.00 92 1017.4
20260906094511 68 218 1.0 0.0 0.00 0.00 0.00 91 1016.7
20260906094021 67 218 1.0 4.0 0.00 0.00 0.00 92 1017.3
20260906094012 68 218 0.0 0.0 0.00 0.00 0.00 91 1016.7
20260906093522 67 218 1.0 4.0 0.00 0.00 0.00 92 1017.2
20260906093511 68 218 1.0 0.0 0.00 0.00 0.00 91 1016.6
20260906093048 67 0 0.0 0.0 0.00 0.00 0.00 91 1017.2
20260906093011 68 203 0.0 0.0 0.00 0.00 0.00 91 1016.7
20260906092523 67 0 0.0 0.0 0.00 0.00 0.00 92 1017.2
20260906092511 68 203 0.0 0.0 0.00 0.00 0.00 91 1016.6
20260906092024 67 0 0.0 0.0 0.00 0.00 0.00 91 1017.2
20260906091546 67 0 0.0 2.0 0.00 0.00 0.00 91 1017.2
20260906091511 68 203 0.0 0.0 0.00 0.00 0.00 91 1016.7
20260906091023 67 0 0.0 2.0 0.00 0.00 0.00 91 1017.3
20260906091011 68 203 0.0 0.0 0.00 0.00 0.00 91 1016.7
20260906090523 67 0 0.0 3.0 0.00 0.00 0.00 91 1017.2
20260906090511 68 203 1.0 0.0 0.00 0.00 0.00 91 1016.6
20260906090048 67 0 0.0 3.0 0.00 0.00 0.00 91 1017.2
20260906090011 68 203 0.0 0.0 0.00 0.00 0.00 91 1016.6
20260906085519 67 203 1.0 3.0 0.00 0.00 0.00 91 1017.2
20260906085511 68 203 2.0 0.0 0.00 0.00 0.00 90 1016.6
20260906085023 67 203 1.0 2.0 0.00 0.00 0.00 91 1017.2
20260906085011 68 203 1.0 0.0 0.00 0.00 0.00 90 1016.7
20260906084548 67 203 1.0 2.0 0.00 0.00 0.00 91 1017.3
20260906084511 68 203 1.0 0.0 0.00 0.00 0.00 90 1016.7
20260906084020 67 203 0.0 2.0 0.00 0.00 0.00 91 1017.2
20260906084011 68 203 2.0 0.0 0.00 0.00 0.00 91 1016.6
20260906083521 67 0 0.0 1.0 0.00 0.00 0.00 91 1017.2
20260906083511 68 203 0.0 0.0 0.00 0.00 0.00 90 1016.6
20260906083039 67 0 0.0 0.0 0.00 0.00 0.00 91 1017.1
20260906083011 68 203 0.0 0.0 0.00 0.00 0.00 90 1016.5
20260906082518 68 0 0.0 0.0 0.00 0.00 0.00 91 1017.2
20260906082511 68 203 0.0 0.0 0.00 0.00 0.00 90 1016.6
20260906082024 68 0 0.0 2.0 0.00 0.00 0.00 91 1017.2
20260906082011 68 203 0.0 0.0 0.00 0.00 0.00 90 1016.5
20260906081546 68 0 0.0 2.0 0.00 0.00 0.00 91 1017.3
20260906081511 68 203 0.0 0.0 0.00 0.00 0.00 90 1016.7
20260906081024 68 0 0.0 2.0 0.00 0.00 0.00 90 1017.3
20260906081011 68 203 0.0 0.0 0.00 0.00 0.00 90 1016.7
20260906080524 68 0 1.0 3.0 0.00 0.00 0.00 90 1017.3
20260906080511 68 203 1.0 0.0 0.00 0.00 0.00 90 1016.7
20260906080044 68 203 1.0 3.0 0.00 0.00 0.00 91 1017.3
20260906080011 68 203 1.0 0.0 0.00 0.00 0.00 90 1016.7
20260906075525 68 203 0.0 5.0 0.00 0.00 0.00 90 1017.4
20260906075511 68 203 1.0 0.0 0.00 0.00 0.00 90 1016.7
20260906075021 68 0 1.0 5.0 0.00 0.00 0.00 90 1017.3
20260906074539 68 194 1.0 5.0 0.00 0.00 0.00 90 1017.3
20260906074511 69 194 1.0 0.0 0.00 0.00 0.00 89 1016.6
20260906074024 68 0 0.0 0.0 0.00 0.00 0.00 90 1017.2
20260906074011 69 172 0.0 0.0 0.00 0.00 0.00 89 1016.6
20260906073522 69 0 0.0 0.0 0.00 0.00 0.00 90 1017.3
20260906073511 69 91 0.0 0.0 0.00 0.00 0.00 90 1016.7
20260906073042 69 0 0.0 2.0 0.00 0.00 0.00 90 1017.4
20260906073011 69 91 0.0 0.0 0.00 0.00 0.00 90 1016.8
20260906072520 69 0 0.0 2.0 0.00 0.00 0.00 91 1017.4
20260906072511 69 91 0.0 0.0 0.00 0.00 0.00 90 1016.8
20260906072020 69 0 0.0 1.0 0.00 0.00 0.00 91 1017.4
20260906072011 69 91 0.0 0.0 0.00 0.00 0.00 90 1016.8
20260906071555 69 0 0.0 1.0 0.00 0.00 0.00 91 1017.4
20260906071511 69 91 0.0 0.0 0.00 0.00 0.00 90 1016.8
20260906071024 69 0 0.0 3.0 0.00 0.00 0.00 91 1017.4
20260906071011 69 91 0.0 0.0 0.00 0.00 0.00 90 1016.7
20260906070524 69 0 0.0 3.0 0.00 0.00 0.00 91 1017.3
20260906070511 69 91 0.0 0.0 0.00 0.00 0.00 90 1016.7
20260906070044 69 0 0.0 0.0 0.00 0.00 0.00 91 1017.4
20260906070011 69 93 0.0 0.0 0.00 0.00 0.00 90 1016.7
20260906065524 69 0 0.0 0.0 0.00 0.00 0.00 90 1017.4
20260906065511 69 93 0.0 0.0 0.00 0.00 0.00 90 1016.7
20260906065024 69 0 0.0 0.0 0.00 0.00 0.00 90 1017.5
20260906065011 69 93 0.0 0.0 0.00 0.00 0.00 90 1016.9
20260906064539 69 0 0.0 4.0 0.00 0.00 0.00 90 1017.6
20260906064511 69 93 0.0 0.0 0.00 0.00 0.00 90 1017.0
20260906064021 69 0 0.0 4.0 0.00 0.00 0.00 90 1017.6
20260906064011 69 93 0.0 0.0 0.00 0.00 0.00 89 1017.0
20260906063522 69 0 0.0 0.0 0.00 0.00 0.00 89 1017.6
20260906063511 69 197 0.0 0.0 0.00 0.00 0.00 89 1017.0
20260906063042 69 0 0.0 0.0 0.00 0.00 0.00 89 1017.7
20260906062520 69 0 0.0 0.0 0.00 0.00 0.00 89 1017.7
20260906062511 70 197 0.0 0.0 0.00 0.00 0.00 89 1017.1
20260906062020 69 0 0.0 0.0 0.00 0.00 0.00 89 1017.8
20260906062011 70 197 0.0 0.0 0.00 0.00 0.00 89 1017.2
20260906061539 69 0 0.0 0.0 0.00 0.00 0.00 89 1017.8
20260906061511 70 197 0.0 0.0 0.00 0.00 0.00 89 1017.2
20260906061023 69 0 0.0 0.0 0.00 0.00 0.00 89 1017.8
20260906061011 70 197 0.0 0.0 0.00 0.00 0.00 89 1017.1
20260906060523 70 0 0.0 0.0 0.00 0.00 0.00 89 1017.7
20260906060511 70 197 0.0 0.0 0.00 0.00 0.00 89 1017.1
20260906060045 70 0 0.0 0.0 0.00 0.00 0.00 89 1017.7
20260906060011 70 197 0.0 0.0 0.00 0.00 0.00 89 1017.0
20260906055525 70 0 0.0 0.0 0.00 0.00 0.00 89 1017.8
20260906055511 70 197 0.0 0.0 0.00 0.00 0.00 88 1017.0
20260906055020 70 0 0.0 0.0 0.00 0.00 0.00 89 1017.7
20260906055011 70 197 0.0 0.0 0.00 0.00 0.00 88 1017.1
20260906054541 70 0 0.0 0.0 0.00 0.00 0.00 89 1017.8
20260906054512 70 197 0.0 0.0 0.00 0.00 0.00 88 1017.1
20260906054018 70 0 0.0 0.0 0.00 0.00 0.00 89 1017.7
20260906053520 70 0 0.0 0.0 0.00 0.00 0.00 89 1017.7
20260906053511 71 197 0.0 0.0 0.00 0.00 0.00 88 1017.1
20260906053042 70 0 0.0 0.0 0.00 0.00 0.00 88 1017.7
20260906053011 71 197 0.0 0.0 0.00 0.00 0.00 88 1017.1
20260906052521 70 0 0.0 0.0 0.00 0.00 0.00 88 1017.7
20260906052511 71 197 0.0 0.0 0.00 0.00 0.00 88 1017.1
20260906052023 70 0 0.0 0.0 0.00 0.00 0.00 88 1017.8
20260906052011 71 197 0.0 0.0 0.00 0.00 0.00 88 1017.1
20260906051538 70 0 0.0 0.0 0.00 0.00 0.00 88 1017.8
20260906051020 71 0 0.0 0.0 0.00 0.00 0.00 88 1017.7
20260906051011 71 197 0.0 0.0 0.00 0.00 0.00 88 1017.0
20260906050526 71 0 0.0 0.0 0.00 0.00 0.00 88 1017.7
20260906050511 71 197 0.0 0.0 0.00 0.00 0.00 88 1017.0
20260906050044 71 0 0.0 0.0 0.00 0.00 0.00 88 1017.7
20260906050011 71 197 0.0 0.0 0.00 0.00 0.00 88 1017.0
20260906045525 71 0 0.0 0.0 0.00 0.00 0.00 88 1017.8
20260906045511 71 197 0.0 0.0 0.00 0.00 0.00 88 1017.1
20260906045022 71 0 0.0 0.0 0.00 0.00 0.00 88 1017.8
20260906045011 71 197 0.0 0.0 0.00 0.00 0.00 88 1017.1
20260906044543 71 0 0.0 0.0 0.00 0.00 0.00 88 1017.9
20260906044512 71 197 0.0 0.0 0.00 0.00 0.00 87 1017.1
20260906044020 71 0 0.0 0.0 0.00 0.00 0.00 88 1017.8
20260906043519 71 0 0.0 0.0 0.00 0.00 0.00 88 1017.9
20260906043511 71 196 0.0 0.0 0.00 0.00 0.00 87 1017.1
20260906043040 71 0 0.0 0.0 0.00 0.00 0.00 88 1017.9
20260906043011 71 196 0.0 0.0 0.00 0.00 0.00 87 1017.1
20260906042523 71 0 0.0 0.0 0.00 0.00 0.00 87 1017.9
20260906042511 71 196 0.0 0.0 0.00 0.00 0.00 87 1017.1
20260906042024 71 0 0.0 0.0 0.00 0.00 0.00 87 1017.9
20260906042011 71 196 0.0 0.0 0.00 0.00 0.00 87 1017.1
20260906041552 71 0 0.0 0.0 0.00 0.00 0.00 87 1018.0
20260906041027 71 0 0.0 0.0 0.00 0.00 0.00 87 1017.9
20260906041011 72 195 0.0 0.0 0.00 0.00 0.00 86 1017.1
20260906040524 71 0 0.0 0.0 0.00 0.00 0.00 87 1017.9
20260906040511 72 195 0.0 0.0 0.00 0.00 0.00 86 1017.1
20260906040045 71 0 0.0 0.0 0.00 0.00 0.00 87 1018.0
20260906040011 72 195 0.0 0.0 0.00 0.00 0.00 86 1017.1
20260906035518 71 0 0.0 0.0 0.00 0.00 0.00 86 1017.9
20260906035511 72 195 0.0 0.0 0.00 0.00 0.00 86 1017.2
20260906035019 71 0 0.0 0.0 0.00 0.00 0.00 86 1018.0
20260906035011 72 195 0.0 0.0 0.00 0.00 0.00 86 1017.2
20260906034546 72 0 0.0 0.0 0.00 0.00 0.00 86 1018.0
20260906034511 72 195 0.0 0.0 0.00 0.00 0.00 85 1017.1
20260906034025 72 0 0.0 0.0 0.00 0.00 0.00 86 1018.0
20260906034011 72 195 0.0 0.0 0.00 0.00 0.00 86 1017.2
20260906033524 72 0 0.0 0.0 0.00 0.00 0.00 86 1018.0
20260906033512 72 195 0.0 0.0 0.00 0.00 0.00 85 1017.1
20260906033038 72 0 0.0 0.0 0.00 0.00 0.00 85 1018.1
20260906033011 72 195 0.0 0.0 0.00 0.00 0.00 85 1017.2
20260906032520 72 0 0.0 0.0 0.00 0.00 0.00 85 1018.1
20260906032511 72 195 0.0 0.0 0.00 0.00 0.00 84 1017.3
20260906032059 72 0 0.0 0.0 0.00 0.00 0.00 85 1018.2
20260906032011 72 195 0.0 0.0 0.00 0.00 0.00 84 1017.4
20260906031543 72 0 0.0 0.0 0.00 0.00 0.00 85 1018.2
20260906031023 72 0 0.0 0.0 0.00 0.00 0.00 85 1018.2
20260906030519 72 0 0.0 0.0 0.00 0.00 0.00 84 1018.1
20260906030511 73 195 0.0 0.0 0.00 0.00 0.00 84 1017.4
20260906030041 72 0 0.0 0.0 0.00 0.00 0.00 84 1018.2
20260906030011 73 195 0.0 0.0 0.00 0.00 0.00 84 1017.3
20260906025519 72 0 0.0 0.0 0.00 0.00 0.00 84 1018.0
20260906025511 73 195 0.0 0.0 0.00 0.00 0.00 84 1017.2
20260906025025 72 0 0.0 0.0 0.00 0.00 0.00 84 1017.8
20260906025011 73 195 0.0 0.0 0.00 0.00 0.00 84 1017.0
20260906024558 73 0 0.0 0.0 0.00 0.00 0.00 84 1017.7
20260906024511 73 195 0.0 0.0 0.00 0.00 0.00 83 1016.9
20260906024024 73 0 0.0 0.0 0.00 0.00 0.00 83 1017.8
20260906023525 73 0 0.0 0.0 0.00 0.00 0.00 83 1017.6
20260906023511 73 196 0.0 0.0 0.00 0.00 0.00 82 1016.9
20260906023038 73 0 0.0 0.0 0.00 0.00 0.00 82 1017.5
20260906023011 74 196 0.0 0.0 0.00 0.00 0.00 82 1016.7
20260906022521 73 0 0.0 0.0 0.00 0.00 0.00 82 1017.4
20260906022023 74 0 0.0 0.0 0.00 0.00 0.00 82 1017.2
20260906022011 74 196 0.0 0.0 0.00 0.00 0.00 81 1016.4
20260906021541 74 0 0.0 0.0 0.00 0.00 0.00 81 1016.9
20260906021511 74 196 0.0 0.0 0.00 0.00 0.00 81 1016.2
20260906021023 74 0 0.0 0.0 0.00 0.00 0.00 81 1016.8
20260906021011 75 196 0.0 0.0 0.00 0.00 0.00 80 1016.0
20260906020524 74 0 0.0 0.0 0.00 0.00 0.00 81 1016.7
20260906020511 75 196 0.0 0.0 0.00 0.00 0.00 80 1015.9
20260906020047 75 0 0.0 0.0 0.00 0.00 0.00 80 1016.6
20260906020011 75 196 0.0 0.0 0.00 0.00 0.00 80 1015.9
20260906015524 75 0 0.0 0.0 0.00 0.00 0.00 80 1016.5
20260906015511 75 196 0.0 0.0 0.00 0.00 0.00 79 1015.7
20260906015025 75 0 0.0 0.0 0.00 0.00 0.00 79 1016.3
20260906015011 76 196 0.0 0.0 0.00 0.00 0.00 79 1015.5
20260906014552 75 0 0.0 0.0 0.00 0.00 0.00 79 1016.2
20260906014028 76 0 0.0 0.0 0.00 0.00 0.00 78 1016.1
20260906014011 76 196 0.0 0.0 0.00 0.00 0.00 78 1015.4
20260906013519 76 0 0.0 0.0 0.00 0.00 0.00 78 1016.2
20260906013511 76 196 0.0 0.0 0.00 0.00 0.00 78 1015.4
20260906013044 76 0 0.0 3.0 0.00 0.00 0.00 78 1016.2
20260906013010 76 196 0.0 0.0 0.00 0.00 0.00 77 1015.4
20260906012520 76 0 0.0 3.0 0.00 0.00 0.00 77 1016.0
20260906012021 76 0 1.0 3.0 0.00 0.00 0.00 77 1016.1
20260906011542 77 195 1.0 3.0 0.00 0.00 0.00 77 1015.9
20260906011510 77 195 2.0 0.0 0.00 0.00 0.00 76 1015.2
20260906011018 77 0 0.0 3.0 0.00 0.00 0.00 77 1015.8
20260906011010 78 143 0.0 0.0 0.00 0.00 0.00 77 1014.9
20260906010520 77 0 0.0 3.0 0.00 0.00 0.00 77 1015.8
20260906010510 78 140 0.0 0.0 0.00 0.00 0.00 77 1014.9
20260906010039 78 0 0.0 0.0 0.00 0.00 0.00 77 1015.6
20260906010010 78 88 0.0 0.0 0.00 0.00 0.00 76 1014.7
20260906005523 78 0 0.0 0.0 0.00 0.00 0.00 76 1015.5
20260906005510 78 88 0.0 0.0 0.00 0.00 0.00 76 1014.6
20260906005028 78 0 0.0 0.0 0.00 0.00 0.00 77 1015.4
20260906004543 78 0 0.0 0.0 0.00 0.00 0.00 76 1015.6
20260906004510 79 88 0.0 0.0 0.00 0.00 0.00 76 1014.7
20260906004024 78 0 0.0 0.0 0.00 0.00 0.00 76 1015.5
20260906004010 79 87 0.0 0.0 0.00 0.00 0.00 76 1014.7
20260906003527 79 0 0.0 3.0 0.00 0.00 0.00 75 1015.5
20260906003510 79 87 0.0 0.0 0.00 0.00 0.00 75 1014.7
20260906003051 79 0 0.0 3.0 0.00 0.00 0.00 75 1015.5
20260906003010 79 87 0.0 0.0 0.00 0.00 0.00 74 1014.8
20260906002520 79 87 0.0 4.0 0.00 0.00 0.00 75 1015.5
20260906002018 79 0 1.0 4.0 0.00 0.00 0.00 75 1015.4
20260906002010 80 86 1.0 0.0 0.00 0.00 0.00 74 1014.7
20260906001541 79 86 1.0 8.0 0.00 0.00 0.00 74 1015.2
20260906001510 80 81 3.0 1.0 0.00 0.00 0.00 74 1014.7
20260906001020 80 80 3.0 8.0 0.00 0.00 0.00 74 1015.3
20260906001010 80 80 4.0 1.0 0.00 0.00 0.00 74 1014.6
20260906000526 80 82 4.0 8.0 0.00 0.00 0.00 73 1015.2
20260906000511 80 78 5.0 1.0 0.00 0.00 0.00 73 1014.5
20260906000046 80 80 4.0 8.0 0.00 0.00 0.00 73 1015.2
20260906000010 80 80 6.0 1.0 0.00 0.00 0.00 72 1014.5
20260905235529 80 76 3.0 8.0 0.00 0.00 0.00 73 1015.2
20260905235024 80 78 4.0 10.0 0.00 0.00 0.00 73 1015.1
20260905235010 81 77 7.0 1.0 0.00 0.00 0.00 73 1014.5
20260905234544 80 78 4.0 10.0 0.00 0.00 0.00 73 1015.1
20260905234510 81 78 4.0 1.0 0.00 0.00 0.00 72 1014.4
20260905234024 81 75 6.0 10.0 0.00 0.00 0.00 72 1014.9
20260905234010 81 82 8.0 1.0 0.00 0.00 0.00 72 1014.2
20260905233524 81 74 4.0 13.0 0.00 0.00 0.00 72 1014.7
20260905233510 81 73 4.0 1.0 0.00 0.00 0.00 72 1014.1
20260905233043 81 79 7.0 13.0 0.00 0.00 0.00 71 1014.7
20260905233010 81 78 5.0 1.0 0.00 0.00 0.00 70 1013.9
20260905232521 81 82 5.0 10.0 0.00 0.00 0.00 70 1014.7
20260905232510 81 80 6.0 1.0 0.00 0.00 0.00 70 1014.0
20260905232022 81 75 4.0 9.0 0.00 0.00 0.00 70 1014.8
20260905232010 82 78 5.0 1.0 0.00 0.00 0.00 69 1014.2